Connaught Arpt, Ireland

4:53 AM GMT on March 25, 2017 (GMT +0000)
Connaught Arpt

Weather History for 03973 - August, 2014

Change the Weather History Date:

Friday, August 29, 2014

  Actual Average Record
Temperature  
Mean Temperature 57 °F -  
Max Temperature 61 °F - - ()
Min Temperature 53 °F - - ()
Degree Days  
Heating Degree Days 8    
Growing Degree Days 7 (Base 50)    
Moisture  
Dew Point 54 °F    
Average Humidity 89    
Maximum Humidity 100    
Minimum Humidity 75    
Precipitation  
Precipitation 0.08 in - - ()
Sea Level Pressure  
Sea Level Pressure 29.63 in    
Wind  
Wind Speed 16 mph ()    
Max Wind Speed 25 mph    
Max Gust Speed 36 mph    
Visibility 8.1 miles    
Events Rain    
T = Trace of Precipitation, MM = Missing Value Source: Averaged Metar Reports

Daily Weather History Graph

Daily Weather History Graph

Search for Another Location

Airport or City:

Trip Planner

Search our weather history database for the weather conditions in past years. The results will help you decide how hot, cold, wet, or windy it might be!

Date:

Astronomy

Aug. 29, 2014 Rise Set
Actual Time 6:38 AM IST 8:33 PM IST
Civil Twilight 6:00 AM IST 9:10 PM IST
Nautical Twilight 5:13 AM IST 9:57 PM IST
Astronomical Twilight 4:18 AM IST 10:51 PM IST
Moon 10:53 AM IST (8/29) 9:41 PM IST (8/29)
Length of Visible Light 15h 10m
Length of Day
13h 55m
Waxing Crescent, 13% of the Moon is Illuminated
Aug 29
Waxing Crescent
Sep 2
First Quarter
Sep 9
Full
Sep 16
Last Quarter
Sep 24
New

Hourly Weather History & Observations

Time (IST) Temp. Dew Point Humidity Pressure Visibility Wind Dir Wind Speed Gust Speed Precip Events Conditions
12:00 AM 55 °F 55 °F 99% 29.42 in - SSW 15.7 mph - -  
1:00 AM 55 °F 54 °F 94% 29.42 in - SSW 15.7 mph - -  
2:00 AM 54 °F 52 °F 91% 29.45 in - SW 20.1 mph - -  
3:00 AM 55 °F 51 °F 82% 29.48 in - SW 20.1 mph - -  
4:00 AM 54 °F 51 °F 87% 29.50 in - SW 17.9 mph - -  
5:00 AM 55 °F 52 °F 85% 29.52 in - WSW 24.6 mph - -  
6:00 AM 54 °F 52 °F 90% 29.55 in 16 mi WSW 20.1 mph - -   Mostly Cloudy
6:00 AM 55.4 °F 51.8 °F 88% 29.53 in 6.2 mi WSW 20.7 mph 32.2 mph N/A   Scattered Clouds
6:30 AM 53.6 °F 51.8 °F 94% 29.53 in 6.2 mi WSW 17.3 mph - N/A Rain Light Rain Showers
7:00 AM 54 °F 52 °F 92% 29.57 in 9 mi WSW 15.7 mph - - Rain Light Rain Showers
7:00 AM 53.6 °F 51.8 °F 94% 29.56 in 6.2 mi WSW 16.1 mph - N/A Rain Light Rain Showers
7:30 AM 53.6 °F 51.8 °F 94% 29.56 in 6.2 mi WSW 15.0 mph - N/A   Scattered Clouds
8:00 AM 55 °F 52 °F 88% 29.59 in 9 mi WSW 17.9 mph - - Rain Light Rain Showers
8:00 AM 55.4 °F 51.8 °F 88% 29.56 in 6.2 mi WSW 18.4 mph 29.9 mph N/A   Scattered Clouds
8:30 AM 55.4 °F 51.8 °F 88% 29.59 in 6.2 mi WSW 19.6 mph - N/A   Scattered Clouds
9:00 AM 56 °F 53 °F 84% 29.60 in 9 mi WSW 22.4 mph - -   Mostly Cloudy
9:00 AM 55.4 °F 51.8 °F 88% 29.59 in 6.2 mi WSW 23.0 mph 35.7 mph N/A   Scattered Clouds
9:30 AM 55.4 °F 51.8 °F 88% 29.59 in 6.2 mi WSW 23.0 mph - N/A   Mostly Cloudy
10:00 AM 56 °F 53 °F 86% 29.62 in 9 mi WSW 17.9 mph - - Rain Light Rain Showers
10:00 AM 57.2 °F 53.6 °F 88% 29.62 in 6.2 mi WSW 18.4 mph - N/A Rain Light Rain Showers
10:30 AM 57.2 °F 53.6 °F 88% 29.62 in 6.2 mi WSW 17.3 mph - N/A   Mostly Cloudy
11:00 AM 58 °F 53 °F 76% 29.64 in 12 mi WSW 17.9 mph - - Rain Light Rain Showers
11:00 AM 57.2 °F 51.8 °F 82% 29.62 in 6.2 mi WSW 18.4 mph - N/A   Mostly Cloudy
11:30 AM 57.2 °F 51.8 °F 82% 29.65 in 6.2 mi WSW 17.3 mph - N/A   Mostly Cloudy
12:00 PM 57 °F 53 °F 81% 29.65 in 16 mi WSW 17.9 mph - -   Mostly Cloudy
12:00 PM 57.2 °F 53.6 °F 88% 29.65 in 6.2 mi WSW 17.3 mph - N/A   Mostly Cloudy
12:30 PM 55.4 °F 55.4 °F 100% 29.65 in 1.1 mi West 18.4 mph - N/A Rain Light Rain
1:00 PM 57 °F 56 °F 95% 29.66 in 7 mi WSW 15.7 mph - - Rain Light Rain
1:00 PM 57.2 °F 55.4 °F 94% 29.65 in 6.2 mi WSW 16.1 mph - N/A   Mostly Cloudy
1:30 PM 57.2 °F 55.4 °F 94% 29.65 in 5.0 mi West 16.1 mph - N/A Rain Light Rain Showers
2:00 PM 57 °F 56 °F 95% 29.68 in 5 mi West 15.7 mph - - Rain Light Rain Showers
2:00 PM 57.2 °F 55.4 °F 94% 29.68 in 5.0 mi West 16.1 mph - N/A Rain Light Rain Showers
2:30 PM 57.2 °F 55.4 °F 94% 29.68 in 6.2 mi West 18.4 mph - N/A   Mostly Cloudy
3:00 PM 59 °F 56 °F 88% 29.68 in 19 mi WSW 17.9 mph - - Rain Light Rain Showers
3:00 PM 59.0 °F 57.2 °F 94% 29.68 in 6.2 mi WSW 17.3 mph - N/A   Mostly Cloudy
3:30 PM 59.0 °F 55.4 °F 88% 29.68 in 6.2 mi West 13.8 mph - N/A   Scattered Clouds
4:00 PM 60 °F 55 °F 78% 29.69 in 19 mi West 15.7 mph - -   Partly Cloudy
4:00 PM 60.8 °F 55.4 °F 82% 29.68 in 6.2 mi West 16.1 mph - N/A   Mostly Cloudy
4:30 PM 60.8 °F 55.4 °F 82% 29.68 in 6.2 mi WSW 17.3 mph - N/A   Mostly Cloudy
5:00 PM 61 °F 55 °F 75% 29.70 in 19 mi West 13.4 mph - -   Mostly Cloudy
5:00 PM 60.8 °F 55.4 °F 82% 29.71 in 6.2 mi West 13.8 mph - N/A   Mostly Cloudy
5:30 PM 60.8 °F 55.4 °F 82% 29.71 in 6.2 mi West 13.8 mph - N/A   Scattered Clouds
6:00 PM 60 °F 55 °F 77% 29.72 in 19 mi West 13.4 mph - -   Mostly Cloudy
6:00 PM 60.8 °F 55.4 °F 82% 29.71 in 6.2 mi West 13.8 mph - N/A   Mostly Cloudy
6:30 PM 57.2 °F 55.4 °F 94% 29.71 in 4.3 mi West 13.8 mph - N/A   Mostly Cloudy
7:00 PM 56 °F 56 °F 98% 29.73 in 9 mi WSW 13.4 mph - - Rain Light Rain Showers
7:00 PM 55.4 °F 55.4 °F 100% 29.71 in 6.2 mi WSW 13.8 mph - N/A Rain Light Rain Showers
7:30 PM 55.4 °F 55.4 °F 100% 29.71 in 6.2 mi West 13.8 mph - N/A   Overcast
8:00 PM 55 °F 55 °F 100% 29.74 in - WSW 15.7 mph - -  
9:00 PM 54 °F 54 °F 100% 29.78 in - West 17.9 mph - -  
10:00 PM 54 °F 54 °F 99% 29.80 in - West 15.7 mph - -  
11:00 PM 54 °F 54 °F 100% 29.82 in - West 13.4 mph - -